YAOGAN 29 (41038 NORAD) Tracking and Keplerian Element Data

This shows tracking and keplerian element data for the satellite.

Feedback or suggestion? Click here.




ElementValue
Catalog41038
NameYAOGAN 29
Epoch Orbit33173
Epoch Day16.02824511
Epoch Year2022
RAAN15.5957
Inclination98.0508
Eccentricity0.0001486
Argument of Perigee110.557
Mean Anonmoly249.5815
Mean Motion14.8056193
Decay Rate1.31E-06
L11 41038U 15069A 22016.02824511 .00000131 00000+0 24076-4 0 9998
L22 41038 98.0508 15.5957 0001486 110.5570 249.5815 14.80561930331736

Live tracking and technical data element details for YAOGAN 29 (NORAD 41038). YAOGAN 29 can be tracked NOW for your location showing map with azimuth and elevation plus other details from your city location.

Track the satellite on the map from your city or location and see movement details for azimuth, elevation, latitude, longitude, range, height, and movement on the map or in text.







IsCatalogInMostPopularTable: catalog: 41038, numindb: 454
Update: records affected: 1



GetName: 41038 YAOGAN 29

Hit Count: updated at: Mon, 17 Jan 2022 00:24:45 GMT